contact:dominique.lefevre@mio.osupytheas.fr, maurice.libes@osupytheas.fr, didier.mallarino@osupytheas.fr
Project:EMSO http://www.emso-fr.org/EMSO-France
Depth: 2436.0 m
Title:EMSO Ligure Ouest : Data MII capteur AQUADOPP
Date,Latitude,Longitude,X_East,Y_North,Z_Up,Amplitude_X,Amplitude_Y,Amplitude_Z,Batterie,SoundSpeed,Heading,Pitch,Roll,Pressure,TIS,Speed,Direction
, degrees North, degrees East, m.s-1, m.s-1,m.s-1, 1, 1, 1, Volt, m.s-1, degree, degree, degree, dbar, degree_C, m.s-1, degree
2021-10-23T00:04:03,42.805,6.029,-0.04,0.002,-0.031,102.0,102.0,101.0,13.3,1505.2,329.7,-0.7,1.8,2470.66,13.28,0.04,272.9
2021-10-23T00:07:03,42.805,6.029,-0.022,0.001,-0.013,102.0,103.0,102.0,13.4,1505.2,329.6,-0.8,1.9,2470.617,13.28,0.022,272.6
2021-10-23T00:10:03,42.805,6.029,-0.028,0.005,-0.02,103.0,104.0,102.0,13.4,1505.2,329.8,-0.7,1.8,2470.615,13.28,0.028,280.1
2021-10-23T00:13:03,42.805,6.029,-0.023,0.015,-0.006,104.0,102.0,102.0,13.4,1505.2,326.7,-0.8,1.9,2470.619,13.28,0.027,303.1
2021-10-23T00:16:03,42.805,6.029,-0.033,0.014,-0.028,103.0,101.0,102.0,13.3,1505.2,325.9,-0.7,1.8,2470.632,13.28,0.035,293.0
2021-10-23T00:19:03,42.805,6.029,-0.024,-0.003,-0.027,103.0,102.0,102.0,13.3,1505.2,329.7,-0.8,1.8,2470.616,13.28,0.024,262.9
2021-10-23T00:22:03,42.805,6.029,-0.028,0.018,-0.023,103.0,101.0,102.0,13.4,1505.2,330.1,-0.8,1.8,2470.566,13.28,0.033,302.7
2021-10-23T00:25:03,42.805,6.029,-0.021,-0.012,-0.026,102.0,102.0,100.0,13.3,1505.2,331.2,-0.8,1.8,2470.616,13.28,0.024,240.3
2021-10-23T00:28:03,42.805,6.029,-0.012,0.017,-0.002,103.0,102.0,101.0,13.4,1505.2,331.1,-0.7,1.8,2470.606,13.28,0.02,324.8
2021-10-23T00:31:03,42.805,6.029,-0.038,0.013,0.003,103.0,102.0,101.0,13.4,1505.2,331.1,-0.8,1.8,2470.591,13.28,0.04,288.9
2021-10-23T00:34:03,42.805,6.029,-0.027,0.021,-0.008,103.0,105.0,100.0,13.3,1505.2,331.6,-0.7,1.8,2470.623,13.28,0.034,307.9
2021-10-23T00:37:02,42.805,6.029,0.001,-0.019,0.006,103.0,104.0,100.0,13.4,1505.2,330.4,-0.8,1.8,2470.599,13.28,0.019,177.0
2021-10-23T00:40:03,42.805,6.029,-0.029,0.013,-0.018,102.0,102.0,101.0,13.4,1505.2,330.9,-0.7,1.8,2470.636,13.28,0.031,294.1
2021-10-23T00:43:03,42.805,6.029,-0.024,0.01,-0.014,104.0,102.0,100.0,13.4,1505.2,329.3,-0.7,1.9,2470.591,13.28,0.026,292.6
2021-10-23T00:46:03,42.805,6.029,-0.013,-0.015,-0.02,103.0,103.0,101.0,13.4,1505.2,327.0,-0.7,1.8,2470.569,13.28,0.019,220.9
2021-10-23T00:49:03,42.805,6.029,-0.016,0.005,-0.009,103.0,103.0,101.0,13.4,1505.2,328.6,-0.8,1.8,2470.531,13.28,0.016,287.4
2021-10-23T00:52:02,42.805,6.029,-0.001,0.0,-0.022,103.0,103.0,102.0,13.4,1505.2,326.1,-0.8,1.8,2470.6,13.28,0.001,270.0
2021-10-23T00:55:02,42.805,6.029,-0.005,-0.004,-0.008,102.0,103.0,102.0,13.4,1505.2,325.7,-0.8,1.8,2470.548,13.28,0.006,231.3
2021-10-23T00:58:03,42.805,6.029,-0.048,0.007,-0.008,103.0,101.0,101.0,13.4,1505.2,326.9,-0.8,1.8,2470.547,13.28,0.048,278.3
2021-10-23T01:04:02,42.805,6.029,0.022,-0.013,-0.056,105.0,104.0,103.0,13.3,1505.2,328.2,-0.7,1.8,2470.614,13.28,0.025,120.6
2021-10-23T01:07:02,42.805,6.029,-0.025,0.001,-0.034,102.0,102.0,102.0,13.4,1505.2,331.3,-0.8,1.8,2470.568,13.28,0.025,272.3
2021-10-23T01:10:03,42.805,6.029,-0.037,0.016,-0.029,103.0,102.0,101.0,13.3,1505.2,331.6,-0.8,1.8,2470.576,13.28,0.04,293.4
2021-10-23T01:13:03,42.805,6.029,-0.034,0.005,-0.005,103.0,102.0,100.0,13.3,1505.2,330.5,-0.7,1.8,2470.584,13.28,0.034,278.4
2021-10-23T01:16:02,42.805,6.029,-0.033,0.005,-0.024,102.0,102.0,101.0,13.4,1505.2,331.2,-0.7,1.8,2470.566,13.28,0.033,278.6
2021-10-23T01:19:02,42.805,6.029,-0.02,-0.012,-0.056,102.0,103.0,102.0,13.4,1505.2,328.6,-0.7,1.8,2470.587,13.28,0.023,239.0
2021-10-23T01:22:02,42.805,6.029,-0.024,0.001,-0.018,101.0,101.0,102.0,13.4,1505.2,327.4,-0.8,1.8,2470.556,13.28,0.024,272.4
2021-10-23T01:25:03,42.805,6.029,-0.029,0.015,-0.01,100.0,101.0,102.0,13.4,1505.2,327.4,-0.7,1.8,2470.564,13.28,0.032,297.4
2021-10-23T01:28:02,42.805,6.029,-0.023,0.004,0.003,102.0,102.0,100.0,13.3,1505.2,326.5,-0.8,1.8,2470.538,13.28,0.023,279.9
2021-10-23T01:31:03,42.805,6.029,-0.013,0.002,-0.011,103.0,102.0,100.0,13.4,1505.2,327.6,-0.7,1.8,2470.528,13.28,0.013,278.7
2021-10-23T01:34:02,42.805,6.029,-0.028,-0.003,-0.006,102.0,102.0,100.0,13.4,1505.2,326.5,-0.8,1.8,2470.588,13.28,0.028,263.9
2021-10-23T01:37:02,42.805,6.029,-0.028,-0.006,-0.009,103.0,102.0,101.0,13.4,1505.2,324.8,-0.7,1.8,2470.571,13.28,0.028,257.9
2021-10-23T01:40:02,42.805,6.029,-0.041,0.005,-0.013,102.0,101.0,101.0,13.4,1505.2,332.1,-0.8,1.8,2470.543,13.28,0.041,277.0
2021-10-23T01:43:03,42.805,6.029,-0.026,-0.008,-0.028,103.0,101.0,100.0,13.4,1505.2,327.9,-0.8,1.8,2470.508,13.28,0.027,252.9
2021-10-23T01:46:02,42.805,6.029,-0.026,-0.006,-0.012,101.0,103.0,100.0,13.4,1505.2,327.1,-0.7,1.9,2470.585,13.28,0.026,257.0
2021-10-23T01:49:03,42.805,6.029,-0.019,-0.005,-0.019,104.0,102.0,100.0,13.3,1505.2,327.5,-0.8,1.9,2470.572,13.28,0.019,255.3
2021-10-23T01:52:02,42.805,6.029,-0.026,-0.002,-0.032,103.0,102.0,101.0,13.4,1505.2,327.2,-0.7,1.8,2470.559,13.28,0.026,265.6
2021-10-23T01:55:02,42.805,6.029,-0.003,-0.025,-0.026,101.0,102.0,100.0,13.4,1505.2,329.2,-0.8,1.8,2470.567,13.28,0.025,186.8
2021-10-23T01:58:02,42.805,6.029,-0.017,-0.005,-0.018,101.0,102.0,102.0,13.4,1505.2,332.0,-0.8,1.9,2470.568,13.28,0.017,253.6
2021-10-23T02:04:02,42.805,6.029,0.0,-0.016,-0.015,103.0,102.0,101.0,13.4,1505.2,327.2,-0.7,1.8,2470.561,13.28,0.016,180.0
2021-10-23T02:07:02,42.805,6.029,-0.007,-0.001,-0.023,103.0,103.0,101.0,13.4,1505.2,329.3,-0.8,1.8,2470.582,13.28,0.007,261.9
2021-10-23T02:10:03,42.805,6.029,0.002,-0.007,-0.038,103.0,101.0,102.0,13.3,1505.2,331.1,-0.8,1.8,2470.604,13.28,0.007,164.1
2021-10-23T02:13:03,42.805,6.029,-0.025,-0.018,-0.025,102.0,103.0,102.0,13.4,1505.2,326.3,-0.8,1.8,2470.585,13.28,0.03,234.2
2021-10-23T02:16:03,42.805,6.029,-0.035,-0.014,-0.024,103.0,101.0,101.0,13.4,1505.2,325.9,-0.8,1.8,2470.562,13.28,0.037,248.2
2021-10-23T02:19:03,42.805,6.029,-0.008,0.011,-0.023,103.0,102.0,102.0,13.4,1505.2,330.6,-0.7,1.8,2470.534,13.28,0.013,324.0
2021-10-23T02:22:02,42.805,6.029,-0.014,-0.002,-0.034,103.0,102.0,102.0,13.4,1505.2,329.3,-0.7,1.8,2470.586,13.28,0.014,261.9
2021-10-23T02:25:03,42.805,6.029,0.003,-0.011,-0.026,102.0,103.0,100.0,13.4,1505.2,326.0,-0.8,1.8,2470.585,13.28,0.011,164.7
2021-10-23T02:28:03,42.805,6.029,-0.016,-0.016,-0.022,103.0,103.0,100.0,13.4,1505.2,331.0,-0.8,1.8,2470.557,13.28,0.022,225.0
2021-10-23T02:31:03,42.805,6.029,-0.011,-0.005,-0.015,103.0,103.0,101.0,13.4,1505.2,326.7,-0.7,1.8,2470.541,13.28,0.012,245.6
2021-10-23T02:34:03,42.805,6.029,-0.011,0.007,-0.01,102.0,102.0,101.0,13.3,1505.2,328.3,-0.8,1.8,2470.574,13.28,0.013,302.5
2021-10-23T02:37:02,42.805,6.029,-0.001,-0.01,-0.003,102.0,102.0,101.0,13.4,1505.2,328.3,-0.8,1.8,2470.529,13.28,0.01,185.7
2021-10-23T02:40:03,42.805,6.029,-0.013,0.007,-0.03,103.0,103.0,101.0,13.4,1505.2,331.7,-0.8,1.8,2470.584,13.28,0.014,298.3
2021-10-23T02:43:03,42.805,6.029,-0.013,-0.011,0.015,104.0,102.0,101.0,13.4,1505.2,326.6,-0.8,1.8,2470.54,13.28,0.017,229.8
2021-10-23T02:46:03,42.805,6.029,-0.015,-0.001,-0.041,103.0,103.0,102.0,13.3,1505.2,325.7,-0.8,1.8,2470.547,13.28,0.015,266.2
2021-10-23T02:49:03,42.805,6.029,-0.002,0.003,0.007,101.0,103.0,102.0,13.4,1505.2,328.3,-0.8,1.8,2470.574,13.28,0.003,326.3
2021-10-23T02:52:02,42.805,6.029,-0.042,0.006,-0.025,103.0,102.0,101.0,13.4,1505.2,331.0,-0.7,1.8,2470.578,13.28,0.042,278.1
2021-10-23T02:55:03,42.805,6.029,-0.02,-0.009,-0.034,102.0,102.0,100.0,13.4,1505.2,325.3,-0.7,1.8,2470.584,13.28,0.021,245.8
2021-10-23T02:58:03,42.805,6.029,-0.021,-0.002,-0.031,102.0,102.0,100.0,13.3,1505.2,325.9,-0.7,1.8,2470.594,13.28,0.021,264.6
2021-10-23T03:04:02,42.805,6.029,-0.009,-0.007,-0.015,102.0,103.0,101.0,13.4,1505.2,329.3,-0.7,1.8,2470.612,13.28,0.011,232.1
2021-10-23T03:07:02,42.805,6.029,-0.017,-0.019,-0.057,102.0,102.0,99.0,13.4,1505.2,328.4,-0.7,1.9,2470.619,13.28,0.025,221.8
2021-10-23T03:10:03,42.805,6.029,-0.025,-0.003,-0.018,102.0,101.0,101.0,13.4,1505.2,325.4,-0.7,1.8,2470.595,13.28,0.025,263.2
2021-10-23T03:13:03,42.805,6.029,-0.028,0.017,-0.01,102.0,102.0,100.0,13.4,1505.2,329.0,-0.7,1.8,2470.586,13.28,0.032,301.3
2021-10-23T03:16:03,42.805,6.029,-0.011,0.005,-0.033,101.0,104.0,100.0,13.4,1505.2,329.4,-0.7,1.8,2470.595,13.28,0.012,294.4
2021-10-23T03:19:03,42.805,6.029,-0.011,-0.003,-0.015,102.0,102.0,99.0,13.4,1505.2,326.3,-0.8,1.9,2470.614,13.28,0.011,254.7
2021-10-23T03:22:02,42.805,6.029,-0.04,0.013,-0.018,101.0,102.0,101.0,13.4,1505.2,328.5,-0.7,1.8,2470.6,13.28,0.042,288.0
2021-10-23T03:25:03,42.805,6.029,-0.019,-0.002,-0.004,102.0,103.0,101.0,13.4,1505.2,331.2,-0.8,1.8,2470.588,13.28,0.019,264.0
2021-10-23T03:28:03,42.805,6.029,-0.018,-0.011,-0.037,101.0,102.0,101.0,13.4,1505.2,328.1,-0.8,1.8,2470.591,13.28,0.021,238.6
2021-10-23T03:31:03,42.805,6.029,-0.005,-0.015,-0.028,102.0,102.0,101.0,13.3,1505.2,325.9,-0.7,1.8,2470.532,13.28,0.015,198.4
2021-10-23T03:34:03,42.805,6.029,-0.031,-0.006,-0.028,101.0,102.0,101.0,13.4,1505.2,327.3,-0.8,1.8,2470.58,13.28,0.031,259.0
2021-10-23T03:37:02,42.805,6.029,-0.041,-0.005,-0.035,103.0,102.0,101.0,13.4,1505.2,327.6,-0.8,1.9,2470.603,13.28,0.041,263.0
2021-10-23T03:40:03,42.805,6.029,-0.016,0.022,0.004,103.0,102.0,100.0,13.4,1505.2,325.7,-0.8,1.8,2470.534,13.28,0.027,324.0
2021-10-23T03:43:03,42.805,6.029,-0.023,0.008,-0.006,102.0,102.0,102.0,13.4,1505.2,329.7,-0.8,1.8,2470.539,13.28,0.024,289.2
2021-10-23T03:46:03,42.805,6.029,-0.009,0.01,0.014,103.0,101.0,101.0,13.4,1505.2,328.5,-0.7,1.8,2470.585,13.28,0.013,318.0
2021-10-23T03:49:03,42.805,6.029,-0.019,-0.01,-0.029,103.0,101.0,102.0,13.4,1505.2,330.6,-0.8,1.8,2470.572,13.28,0.021,242.2
2021-10-23T03:52:02,42.805,6.029,0.003,0.004,0.008,103.0,102.0,101.0,13.4,1505.2,328.6,-0.7,1.8,2470.543,13.28,0.005,36.9
2021-10-23T03:55:03,42.805,6.029,-0.025,0.002,-0.005,102.0,103.0,101.0,13.3,1505.2,330.6,-0.7,1.8,2470.604,13.28,0.025,274.6
2021-10-23T03:58:03,42.805,6.029,-0.024,-0.013,-0.016,103.0,101.0,101.0,13.4,1505.2,330.6,-0.7,1.8,2470.557,13.28,0.027,241.6
2021-10-23T04:04:02,42.805,6.029,-0.02,0.003,-0.013,101.0,102.0,101.0,13.4,1505.2,331.2,-0.8,1.8,2470.597,13.28,0.02,278.5
2021-10-23T04:07:02,42.805,6.029,-0.026,0.0,-0.026,102.0,102.0,101.0,13.3,1505.2,328.8,-0.8,1.8,2470.64,13.28,0.026,270.0
2021-10-23T04:10:03,42.805,6.029,-0.01,0.005,-0.013,103.0,102.0,100.0,13.4,1505.2,326.7,-0.7,1.8,2470.609,13.28,0.011,296.6
2021-10-23T04:13:03,42.805,6.029,-0.013,-0.008,-0.033,102.0,103.0,102.0,13.4,1505.2,330.0,-0.8,1.8,2470.589,13.28,0.015,238.4
2021-10-23T04:16:03,42.805,6.029,-0.005,-0.014,-0.009,102.0,102.0,100.0,13.4,1505.2,327.6,-0.8,1.8,2470.579,13.28,0.014,199.6
2021-10-23T04:19:03,42.805,6.029,-0.013,-0.016,-0.014,103.0,101.0,102.0,13.4,1505.2,325.3,-0.8,1.8,2470.595,13.28,0.02,219.1
2021-10-23T04:22:02,42.805,6.029,-0.028,0.0,-0.014,102.0,101.0,101.0,13.4,1505.2,329.2,-0.7,1.8,2470.598,13.28,0.028,270.0
2021-10-23T04:25:03,42.805,6.029,-0.034,-0.018,-0.026,101.0,102.0,101.0,13.4,1505.2,326.9,-0.8,1.8,2470.592,13.28,0.038,242.1
2021-10-23T04:28:03,42.805,6.029,-0.046,0.0,-0.031,102.0,100.0,101.0,13.4,1505.2,326.8,-0.8,1.8,2470.586,13.28,0.046,270.0
2021-10-23T04:31:03,42.805,6.029,-0.02,-0.007,-0.003,101.0,102.0,101.0,13.4,1505.2,327.1,-0.8,1.8,2470.569,13.28,0.021,250.7
2021-10-23T04:34:03,42.805,6.029,-0.023,0.023,-0.015,102.0,101.0,100.0,13.4,1505.2,331.6,-0.8,1.8,2470.62,13.28,0.032,315.0
2021-10-23T04:37:03,42.805,6.029,0.001,-0.009,-0.046,103.0,102.0,100.0,13.3,1505.2,330.1,-0.8,1.9,2470.59,13.28,0.009,173.7
2021-10-23T04:40:03,42.805,6.029,-0.016,0.001,-0.025,102.0,101.0,101.0,13.4,1505.2,332.1,-0.8,1.8,2470.595,13.28,0.016,273.6
2021-10-23T04:43:03,42.805,6.029,-0.038,0.028,-0.021,102.0,101.0,101.0,13.4,1505.2,326.4,-0.7,1.8,2470.557,13.28,0.047,306.4
2021-10-23T04:46:03,42.805,6.029,0.008,-0.006,-0.023,103.0,102.0,101.0,13.4,1505.2,326.4,-0.7,1.8,2470.593,13.28,0.01,126.9
2021-10-23T04:49:03,42.805,6.029,-0.024,-0.002,-0.005,103.0,102.0,101.0,13.4,1505.2,327.2,-0.7,1.8,2470.623,13.28,0.024,265.2
2021-10-23T04:52:02,42.805,6.029,-0.015,0.002,-0.03,102.0,101.0,102.0,13.3,1505.2,329.1,-0.8,1.8,2470.594,13.28,0.015,277.6
2021-10-23T04:55:03,42.805,6.029,0.001,-0.003,-0.044,102.0,101.0,101.0,13.3,1505.2,327.5,-0.8,1.8,2470.604,13.28,0.003,161.6
2021-10-23T04:58:03,42.805,6.029,-0.003,-0.015,-0.022,101.0,102.0,101.0,13.3,1505.2,330.0,-0.8,1.8,2470.601,13.28,0.015,191.3
2021-10-23T05:04:02,42.805,6.029,0.003,-0.014,-0.04,102.0,101.0,101.0,13.3,1505.2,327.2,-0.8,1.9,2470.664,13.28,0.014,167.9
2021-10-23T05:07:03,42.805,6.029,-0.019,0.001,0.016,102.0,102.0,101.0,13.4,1505.2,325.3,-0.7,1.8,2470.665,13.28,0.019,273.0
2021-10-23T05:10:03,42.805,6.029,-0.019,-0.006,-0.021,101.0,102.0,101.0,13.4,1505.2,327.0,-0.7,1.8,2470.635,13.28,0.019,252.5
2021-10-23T05:13:03,42.805,6.029,-0.014,-0.012,-0.003,103.0,103.0,100.0,13.4,1505.2,328.4,-0.7,1.8,2470.634,13.28,0.018,229.4
2021-10-23T05:16:03,42.805,6.029,-0.029,-0.016,-0.017,102.0,103.0,101.0,13.4,1505.2,328.4,-0.7,1.8,2470.664,13.28,0.033,241.1
2021-10-23T05:19:03,42.805,6.029,-0.03,-0.001,-0.04,102.0,101.0,101.0,13.3,1505.2,329.6,-0.7,1.8,2470.64,13.28,0.03,268.1
2021-10-23T05:22:03,42.805,6.029,-0.012,-0.017,-0.027,103.0,100.0,101.0,13.4,1505.2,330.6,-0.7,1.8,2470.619,13.28,0.02,215.2
2021-10-23T05:25:03,42.805,6.029,-0.037,0.001,-0.033,102.0,102.0,101.0,13.4,1505.2,327.5,-0.8,1.8,2470.627,13.28,0.037,271.5
2021-10-23T05:28:03,42.805,6.029,-0.012,-0.003,-0.008,102.0,101.0,101.0,13.4,1505.2,328.5,-0.7,1.8,2470.626,13.28,0.012,256.0
2021-10-23T05:31:03,42.805,6.029,-0.027,-0.018,-0.024,102.0,100.0,102.0,13.3,1505.2,329.7,-0.8,1.8,2470.639,13.28,0.032,236.3
2021-10-23T05:34:03,42.805,6.029,-0.019,0.003,-0.03,102.0,101.0,100.0,13.4,1505.2,329.7,-0.7,1.8,2470.64,13.28,0.019,279.0
2021-10-23T05:37:03,42.805,6.029,-0.014,-0.019,-0.022,102.0,101.0,101.0,13.4,1505.2,325.9,-0.8,1.8,2470.642,13.28,0.023,216.4
2021-10-23T05:40:03,42.805,6.029,-0.035,0.007,-0.023,102.0,102.0,101.0,13.4,1505.2,331.1,-0.8,1.8,2470.613,13.28,0.035,281.3
2021-10-23T05:43:03,42.805,6.029,-0.031,-0.017,-0.021,102.0,102.0,100.0,13.3,1505.2,326.6,-0.7,1.8,2470.631,13.28,0.035,241.3
2021-10-23T05:46:03,42.805,6.029,-0.03,0.004,-0.043,102.0,103.0,100.0,13.4,1505.2,328.5,-0.8,1.8,2470.658,13.28,0.03,277.6
2021-10-23T05:49:03,42.805,6.029,-0.029,0.01,-0.035,102.0,101.0,101.0,13.3,1505.2,329.2,-0.8,1.8,2470.636,13.28,0.03,289.0
2021-10-23T05:52:03,42.805,6.029,-0.042,-0.004,-0.035,102.0,102.0,100.0,13.3,1505.2,331.0,-0.8,1.8,2470.64,13.28,0.042,264.6
2021-10-23T05:55:03,42.805,6.029,-0.003,0.0,-0.01,101.0,102.0,101.0,13.4,1505.2,329.0,-0.7,1.8,2470.668,13.28,0.003,270.0
2021-10-23T05:58:03,42.805,6.029,-0.024,-0.011,-0.044,102.0,102.0,100.0,13.4,1505.2,331.6,-0.8,1.9,2470.674,13.28,0.026,245.4
2021-10-23T06:04:02,42.805,6.029,-0.023,0.005,-0.013,102.0,102.0,101.0,13.4,1505.2,327.6,-0.8,1.8,2470.713,13.28,0.023,282.3
2021-10-23T06:07:03,42.805,6.029,-0.024,0.001,-0.018,101.0,101.0,101.0,13.4,1505.2,329.9,-0.7,1.8,2470.725,13.28,0.024,272.4
2021-10-23T06:10:03,42.805,6.029,-0.018,0.002,-0.032,102.0,101.0,100.0,13.4,1505.2,331.1,-0.7,1.8,2470.696,13.28,0.018,276.3
2021-10-23T06:13:03,42.805,6.029,-0.026,-0.01,-0.03,102.0,102.0,101.0,13.4,1505.2,331.7,-0.8,1.8,2470.705,13.28,0.027,249.0
2021-10-23T06:16:03,42.805,6.029,-0.028,0.008,-0.022,102.0,102.0,102.0,13.4,1505.2,325.9,-0.8,1.9,2470.688,13.28,0.029,285.9
2021-10-23T06:19:03,42.805,6.029,-0.035,0.004,-0.001,102.0,102.0,101.0,13.3,1505.2,331.0,-0.8,1.8,2470.698,13.28,0.035,276.5
2021-10-23T06:22:03,42.805,6.029,-0.005,-0.003,0.014,102.0,102.0,101.0,13.3,1505.2,327.1,-0.7,1.8,2470.683,13.28,0.005,239.0
2021-10-23T06:25:03,42.805,6.029,-0.022,-0.003,-0.027,102.0,101.0,101.0,13.4,1505.2,325.9,-0.8,1.8,2470.717,13.28,0.022,262.2
2021-10-23T06:28:03,42.805,6.029,0.003,-0.004,-0.016,102.0,102.0,101.0,13.3,1505.2,327.8,-0.8,1.8,2470.714,13.28,0.005,143.1
2021-10-23T06:31:03,42.805,6.029,-0.021,-0.006,-0.01,102.0,102.0,100.0,13.4,1505.2,327.7,-0.7,1.8,2470.729,13.28,0.021,254.1
2021-10-23T06:34:03,42.805,6.029,-0.028,-0.013,-0.056,101.0,100.0,101.0,13.4,1505.2,328.2,-0.8,1.8,2470.668,13.28,0.03,245.1
2021-10-23T06:37:03,42.805,6.029,-0.024,-0.025,-0.053,102.0,102.0,101.0,13.4,1505.2,326.7,-0.8,1.8,2470.67,13.28,0.034,223.8
2021-10-23T06:40:03,42.805,6.029,-0.045,-0.003,-0.019,102.0,102.0,101.0,13.4,1505.2,328.6,-0.7,1.8,2470.719,13.28,0.045,266.2
2021-10-23T06:43:03,42.805,6.029,-0.024,0.001,-0.015,102.0,101.0,101.0,13.4,1505.2,328.1,-0.8,1.8,2470.707,13.28,0.024,272.4
2021-10-23T06:46:03,42.805,6.029,-0.008,0.001,-0.029,102.0,102.0,102.0,13.3,1505.2,329.9,-0.8,1.8,2470.736,13.28,0.008,277.1
2021-10-23T06:49:03,42.805,6.029,-0.019,0.001,-0.038,102.0,102.0,101.0,13.4,1505.2,326.1,-0.8,1.8,2470.712,13.28,0.019,273.0
2021-10-23T06:52:03,42.805,6.029,-0.024,0.003,-0.028,102.0,102.0,101.0,13.4,1505.2,329.8,-0.7,1.8,2470.716,13.28,0.024,277.1
2021-10-23T06:55:03,42.805,6.029,-0.029,-0.003,-0.022,103.0,102.0,101.0,13.3,1505.2,326.9,-0.8,1.8,2470.716,13.28,0.029,264.1
2021-10-23T06:58:03,42.805,6.029,-0.036,0.001,-0.047,102.0,102.0,101.0,13.4,1505.2,331.9,-0.7,1.8,2470.723,13.28,0.036,271.6
2021-10-23T07:04:03,42.805,6.029,-0.009,0.007,-0.001,103.0,103.0,101.0,13.4,1505.2,327.6,-0.8,1.8,2470.792,13.28,0.011,307.9
2021-10-23T07:07:03,42.805,6.029,-0.028,-0.007,-0.023,102.0,101.0,102.0,13.4,1505.2,331.0,-0.8,1.8,2470.773,13.28,0.028,256.0
2021-10-23T07:10:03,42.805,6.029,-0.021,-0.026,-0.035,102.0,101.0,102.0,13.3,1505.2,325.8,-0.7,1.8,2470.735,13.28,0.033,218.9
2021-10-23T07:13:03,42.805,6.029,-0.028,0.006,-0.035,102.0,103.0,101.0,13.4,1505.2,325.7,-0.7,1.8,2470.798,13.28,0.028,282.1
2021-10-23T07:16:03,42.805,6.029,-0.02,-0.011,-0.014,102.0,102.0,102.0,13.3,1505.2,330.1,-0.7,1.8,2470.712,13.28,0.022,241.2
2021-10-23T07:19:03,42.805,6.029,-0.019,-0.002,-0.045,102.0,103.0,100.0,13.4,1505.2,328.3,-0.8,1.8,2470.772,13.28,0.019,264.0
2021-10-23T07:22:03,42.805,6.029,-0.017,-0.008,-0.003,100.0,103.0,101.0,13.4,1505.2,328.4,-0.8,1.8,2470.76,13.28,0.018,244.8
2021-10-23T07:25:03,42.805,6.029,-0.008,-0.021,-0.048,103.0,102.0,101.0,13.4,1505.2,327.2,-0.8,1.8,2470.764,13.28,0.022,200.9
2021-10-23T07:28:03,42.805,6.029,-0.039,-0.013,-0.048,102.0,102.0,101.0,13.3,1505.2,327.3,-0.7,1.9,2470.715,13.28,0.041,251.6
2021-10-23T07:31:03,42.805,6.029,-0.013,-0.025,0.0,103.0,102.0,101.0,13.4,1505.2,326.9,-0.7,1.8,2470.731,13.28,0.028,207.5
2021-10-23T07:34:03,42.805,6.029,-0.027,0.002,0.017,102.0,102.0,102.0,13.4,1505.2,329.7,-0.8,1.8,2470.766,13.28,0.027,274.2
2021-10-23T07:37:03,42.805,6.029,-0.025,-0.01,-0.021,102.0,102.0,101.0,13.4,1505.2,326.1,-0.8,1.8,2470.69,13.28,0.026,248.2
2021-10-23T07:40:03,42.805,6.029,-0.011,-0.006,-0.016,102.0,102.0,101.0,13.4,1505.2,326.6,-0.8,1.8,2470.719,13.28,0.012,241.4
2021-10-23T07:43:03,42.805,6.029,-0.024,-0.008,0.005,102.0,102.0,100.0,13.3,1505.2,325.9,-0.8,1.8,2470.747,13.28,0.025,251.6
2021-10-23T07:46:03,42.805,6.029,-0.024,-0.014,-0.006,103.0,101.0,100.0,13.4,1505.2,325.7,-0.7,1.8,2470.722,13.28,0.027,239.7
2021-10-23T07:49:03,42.805,6.029,-0.016,-0.035,-0.035,102.0,101.0,101.0,13.4,1505.2,325.2,-0.7,1.8,2470.725,13.28,0.038,204.6
2021-10-23T07:52:03,42.805,6.029,-0.022,-0.015,-0.041,101.0,101.0,101.0,13.4,1505.2,330.0,-0.8,1.8,2470.771,13.28,0.026,235.7
2021-10-23T07:55:03,42.805,6.029,-0.017,-0.006,-0.004,101.0,102.0,101.0,13.4,1505.2,324.9,-0.8,1.8,2470.775,13.28,0.018,250.6
2021-10-23T07:58:03,42.805,6.029,-0.025,-0.009,-0.061,101.0,101.0,102.0,13.3,1505.2,331.3,-0.8,1.8,2470.738,13.28,0.026,250.2
2021-10-23T08:04:03,42.805,6.029,-0.019,-0.015,-0.002,103.0,101.0,102.0,13.4,1505.2,326.7,-0.8,1.8,2470.791,13.28,0.024,231.7
2021-10-23T08:07:03,42.805,6.029,-0.038,0.002,-0.032,102.0,103.0,101.0,13.4,1505.2,329.3,-0.7,1.8,2470.828,13.28,0.038,273.0
2021-10-23T08:10:03,42.805,6.029,-0.022,-0.008,-0.007,102.0,102.0,101.0,13.3,1505.2,329.6,-0.7,1.8,2470.84,13.28,0.023,250.0
2021-10-23T08:13:03,42.805,6.029,-0.013,0.001,-0.027,102.0,102.0,101.0,13.3,1505.2,327.6,-0.8,1.9,2470.795,13.28,0.013,274.4
2021-10-23T08:16:03,42.805,6.029,-0.029,-0.014,-0.006,102.0,103.0,100.0,13.3,1505.2,325.7,-0.8,1.8,2470.792,13.28,0.032,244.2
2021-10-23T08:19:03,42.805,6.029,-0.035,0.0,-0.019,102.0,101.0,101.0,13.4,1505.2,331.2,-0.7,1.8,2470.792,13.28,0.035,270.0
2021-10-23T08:22:03,42.805,6.029,-0.024,-0.006,-0.015,102.0,103.0,101.0,13.3,1505.2,329.5,-0.7,1.8,2470.781,13.28,0.024,256.0
2021-10-23T08:25:03,42.805,6.029,-0.025,-0.012,-0.021,102.0,102.0,102.0,13.4,1505.2,328.9,-0.7,1.8,2470.785,13.28,0.027,244.4
2021-10-23T08:28:03,42.805,6.029,-0.028,-0.024,-0.029,102.0,102.0,102.0,13.3,1505.2,327.4,-0.8,1.8,2470.76,13.28,0.036,229.4
2021-10-23T08:31:03,42.805,6.029,0.0,0.0,0.002,103.0,101.0,101.0,13.4,1505.2,331.1,-0.8,1.8,2470.76,13.28,0.0,0.0
2021-10-23T08:34:03,42.805,6.029,-0.03,-0.023,-0.027,102.0,101.0,101.0,13.4,1505.2,327.3,-0.8,1.8,2470.763,13.28,0.037,232.5
2021-10-23T08:37:03,42.805,6.029,-0.021,-0.01,-0.033,103.0,102.0,101.0,13.4,1505.2,326.7,-0.8,1.8,2470.79,13.28,0.023,244.5
2021-10-23T08:40:03,42.805,6.029,-0.015,-0.008,-0.053,103.0,101.0,101.0,13.3,1505.2,331.0,-0.7,1.8,2470.743,13.28,0.017,241.9
2021-10-23T08:43:03,42.805,6.029,-0.019,-0.005,-0.007,103.0,103.0,100.0,13.4,1505.2,331.0,-0.8,1.8,2470.749,13.28,0.019,255.3
2021-10-23T08:46:03,42.805,6.029,0.003,-0.011,-0.024,102.0,101.0,101.0,13.3,1505.2,331.6,-0.7,1.8,2470.782,13.28,0.011,164.7
2021-10-23T08:49:03,42.805,6.029,-0.016,-0.008,-0.011,102.0,101.0,101.0,13.4,1505.2,329.7,-0.7,1.8,2470.775,13.28,0.017,243.4
2021-10-23T08:52:03,42.805,6.029,-0.021,-0.001,-0.027,102.0,102.0,100.0,13.3,1505.2,329.9,-0.8,1.8,2470.777,13.28,0.021,267.3
2021-10-23T08:55:03,42.805,6.029,-0.023,0.004,-0.037,102.0,101.0,101.0,13.3,1505.2,330.5,-0.8,1.9,2470.749,13.28,0.023,279.9
2021-10-23T08:58:03,42.805,6.029,-0.04,0.004,-0.05,103.0,102.0,102.0,13.4,1505.2,328.5,-0.8,1.8,2470.779,13.28,0.04,275.7
2021-10-23T09:04:03,42.805,6.029,-0.023,-0.006,-0.046,103.0,102.0,101.0,13.4,1505.2,329.6,-0.7,1.8,2470.803,13.28,0.023,255.4
2021-10-23T09:07:03,42.805,6.029,0.002,-0.011,-0.034,102.0,102.0,101.0,13.3,1505.2,326.8,-0.8,1.8,2470.84,13.28,0.011,169.7
2021-10-23T09:10:03,42.805,6.029,-0.017,0.002,-0.025,102.0,102.0,100.0,13.3,1505.2,326.0,-0.8,1.8,2470.772,13.28,0.017,276.7
2021-10-23T09:13:03,42.805,6.029,-0.001,-0.005,-0.022,102.0,103.0,101.0,13.4,1505.2,329.9,-0.7,1.8,2470.788,13.28,0.005,191.3
2021-10-23T09:16:03,42.805,6.029,-0.003,-0.014,-0.007,102.0,102.0,101.0,13.4,1505.2,327.2,-0.8,1.9,2470.793,13.28,0.014,192.1
2021-10-23T09:19:03,42.805,6.029,-0.035,-0.006,-0.01,102.0,102.0,102.0,13.3,1505.2,329.0,-0.8,1.8,2470.762,13.28,0.035,260.3
2021-10-23T09:22:03,42.805,6.029,-0.047,-0.009,-0.049,104.0,100.0,100.0,13.4,1505.2,326.7,-0.8,1.8,2470.775,13.28,0.047,259.2
2021-10-23T09:25:03,42.805,6.029,-0.013,-0.022,-0.029,102.0,102.0,101.0,13.3,1505.2,326.8,-0.8,1.8,2470.76,13.28,0.025,210.6
2021-10-23T09:28:03,42.805,6.029,-0.014,0.002,-0.021,102.0,101.0,101.0,13.4,1505.2,327.1,-0.8,1.8,2470.765,13.28,0.014,278.1
2021-10-23T09:31:03,42.805,6.029,-0.02,0.001,-0.035,103.0,102.0,100.0,13.4,1505.2,331.0,-0.7,1.8,2470.756,13.28,0.02,272.9
2021-10-23T09:34:03,42.805,6.029,-0.031,-0.006,-0.046,103.0,101.0,101.0,13.4,1505.2,329.1,-0.7,1.8,2470.72,13.28,0.031,259.0
2021-10-23T09:37:03,42.805,6.029,-0.022,-0.02,-0.027,103.0,103.0,100.0,13.4,1505.2,326.3,-0.7,1.8,2470.775,13.28,0.029,227.7
2021-10-23T09:40:03,42.805,6.029,-0.017,-0.015,-0.003,103.0,102.0,101.0,13.4,1505.2,329.2,-0.8,1.8,2470.759,13.28,0.022,228.6
2021-10-23T09:43:03,42.805,6.029,-0.04,0.005,-0.013,102.0,101.0,100.0,13.4,1505.2,329.2,-0.8,1.9,2470.766,13.28,0.04,277.1
2021-10-23T09:46:03,42.805,6.029,-0.007,0.006,-0.017,101.0,102.0,100.0,13.4,1505.2,324.8,-0.8,1.8,2470.826,13.28,0.009,310.6
2021-10-23T09:49:03,42.805,6.029,-0.037,0.005,-0.023,101.0,101.0,102.0,13.4,1505.2,326.6,-0.7,1.8,2470.752,13.28,0.037,277.7
2021-10-23T09:52:03,42.805,6.029,-0.017,-0.013,-0.052,102.0,101.0,101.0,13.4,1505.2,327.3,-0.8,1.8,2470.739,13.28,0.021,232.6